Regional Weather Roundup
Issued by NWS Cleveland, OH

Home | Current Version | Previous Version | Text Only | Print | Product List | Glossary On
Versions: 1 2 3 4 5 6 7 8 9 10 11 12 13 14 15 16 17 18 19 20 21 22 23 24 25 26 27 28 29 30 31 32 33 34 35 36 37 38 39 40 41 42 43 44 45 46 47 48 49 50
000
ASUS41 KCLE 022302
RWRCLE
OHIO REGIONAL WEATHER ROUNDUP
NATIONAL WEATHER SERVICE CLEVELAND, OH
600 PM EST FRI DEC 02 2016

NOTE: "FAIR" INDICATES FEW OR NO CLOUDS BELOW 12,000 FEET WITH NO
SIGNIFICANT WEATHER AND/OR OBSTRUCTIONS TO VISIBILITY.

OHZ001>008-015>018-024>027-034-035-043-044-030000-
   NORTHWEST OHIO

CITY           SKY/WX    TMP DP  RH WIND       PRES   REMARKS
DEFIANCE       CLOUDY    39  29  67 NW12      30.20R
FINDLAY        LGT RAIN  38  31  76 W8        30.18R
TOLEDO EXPRESS CLOUDY    38  29  70 W13       30.17R
TOLEDO EXEC    CLOUDY    39  30  70 W12       30.18R
LIMA           CLOUDY    38  32  79 W14       30.19R
$$

OHZ009>014-019>023-028>033-038-089-030000-
   NORTHEAST OHIO

CITY           SKY/WX    TMP DP  RH WIND       PRES   REMARKS
CLE-HOPKINS    RAIN      37  32  82 W15G22    30.15R
CLE-LAKEFRONT  CLOUDY    42  32  67 W16       30.11R
CUY CO. ARPT   MOCLDY    41  32  70 NW16G25   30.10R
LORAIN-ELYRIA  CLOUDY    37  31  78 W12G17    30.14R
ASHTABULA      CLOUDY    38  30  73 W12G21    30.08R
AKRON-CANTON   CLOUDY    37  32  82 W10G24    30.12R
WOOSTER        CLOUDY    35  32  88 W10       30.14R WCI  27
MANSFIELD      CLOUDY    37  31  78 W10G20    30.14R
YOUNGSTOWN     CLOUDY    36  32  85 W13       30.08R
$$

OHZ042-051>053-060>062-070>072-077>081-030000-
  SOUTHWEST OHIO

CITY           SKY/WX    TMP DP  RH WIND       PRES   REMARKS
CINC-COVINGTON CLOUDY    39  30  70 W9        30.25R
CINC-LUNKEN    CLOUDY    41  30  65 W9        30.27R
HAMILTON       CLOUDY    41  29  62 W7        30.27R
DAYTON         CLOUDY    38  29  70 W13       30.23R
WRIGHT-PAT AFB CLOUDY    39  29  68 W16       30.22S
DAYTON GENERAL CLOUDY    39  28  64 W9        30.22S
WILMINGTON     CLOUDY    38  30  73 NW9       30.22R
$$

OHZ036-037-039>041-045>050-054>059-063>069-073>076-082>088-030000-
  CENTRAL AND SOUTHEAST OHIO

CITY           SKY/WX    TMP DP  RH WIND       PRES   REMARKS
COLUMBUS       CLOUDY    38  31  76 W15       30.20R
OSU AIRPORT    CLOUDY    38  31  76 W10       30.20R
BOLTON FIELD   CLOUDY    37  30  75 W6        30.21R
RICKENBACK AFB CLOUDY    37  32  81 W9        30.21S
NEWARK         CLOUDY    38  30  73 W7        30.19R
MARION         CLOUDY    38  31  76 W10       30.18R
LANCASTER      CLOUDY    38  32  79 W6        30.22R
ZANESVILLE     CLOUDY    37  32  82 W7        30.19R
NEW PHILLY     CLOUDY    38  31  76 W7        30.15S
$$



USA.gov is the U.S. government's official web portal to all federal, state and local government web resources and services.